Palermo, Italy

6:37 PM CET on November 23, 2017 (GMT +0100)
Punta Raisi

Weather History for LICJ - May, 2013

Change the Weather History Date:

Thursday, May 16, 2013

  Actual Average Record
Temperature  
Mean Temperature 76 °F -  
Max Temperature 86 °F 74 °F 86 °F (2013)
Min Temperature 66 °F 64 °F 55 °F (2004)
Cooling Degree Days 11    
Growing Degree Days 26 (Base 50)    
Moisture  
Dew Point 56 °F    
Average Humidity 62    
Maximum Humidity 88    
Minimum Humidity 23    
Precipitation  
Precipitation 0.00 in 0.02 in - ()
Sea Level Pressure  
Sea Level Pressure 29.57 in    
Wind  
Wind Speed 11 mph ()    
Max Wind Speed 26 mph    
Max Gust Speed 39 mph    
Visibility 6.2 miles    
Events Rain    
Averages and records for this station are not official NWS values.
T = Trace of Precipitation, MM = Missing Value Source: Averaged Metar Reports

Daily Weather History Graph

Daily Weather History Graph

Search for Another Location

Airport or City:

Trip Planner

Search our weather history database for the weather conditions in past years. The results will help you decide how hot, cold, wet, or windy it might be!

Date:

Astronomy

May. 16, 2013 Rise Set
Actual Time 5:55 AM CEST 8:12 PM CEST
Civil Twilight 5:26 AM CEST 8:42 PM CEST
Nautical Twilight 4:49 AM CEST 9:18 PM CEST
Astronomical Twilight 4:09 AM CEST 9:58 PM CEST
Moon 11:11 AM CEST (5/16) 12:24 AM CEST (5/16)
Length of Visible Light 15h 15m
Length of Day
14h 16m
Waxing Crescent, 33% of the Moon is Illuminated
May 16
Waxing Crescent
May 18
First Quarter
May 25
Full
May 31
Last Quarter
Jun 8
New

Hourly Weather History & Observations

Time (CEST) Temp. Dew Point Humidity Pressure Visibility Wind Dir Wind Speed Gust Speed Precip Events Conditions
12:20 AM 80.6 °F 42.8 °F 26% 29.62 in 6.2 mi SSE 11.5 mph - N/A   Partly Cloudy
12:50 AM 73.4 °F 53.6 °F 50% 29.65 in 6.2 mi WSW 16.1 mph - N/A   Partly Cloudy
1:20 AM 75.2 °F 46.4 °F 36% 29.65 in 6.2 mi South 17.3 mph - N/A   Light Drizzle
1:50 AM 80.6 °F 42.8 °F 26% 29.56 in 6.2 mi SSE 8.1 mph - N/A   Scattered Clouds
2:20 AM 80.6 °F 44.6 °F 28% 29.56 in 6.2 mi SSW 8.1 mph - N/A   Partly Cloudy
2:50 AM 77.0 °F 51.8 °F 41% 29.53 in 6.2 mi Variable 5.8 mph 21.9 mph N/A   Partly Cloudy
3:20 AM 82.4 °F 46.4 °F 28% 29.50 in 6.2 mi SE 15.0 mph 28.8 mph N/A   Partly Cloudy
3:50 AM 82.4 °F 46.4 °F 28% 29.50 in 6.2 mi Variable 6.9 mph 18.4 mph N/A   Partly Cloudy
4:20 AM 86.0 °F 44.6 °F 23% 29.50 in 6.2 mi South 26.5 mph 39.1 mph N/A   Partly Cloudy
4:50 AM 86.0 °F 44.6 °F 23% 29.53 in 6.2 mi SSE 20.7 mph - N/A   Partly Cloudy
5:20 AM 77.0 °F 51.8 °F 41% 29.53 in 6.2 mi SW 25.3 mph - N/A   Drizzle
5:50 AM 71.6 °F 59.0 °F 64% 29.53 in 6.2 mi SE 10.4 mph - N/A   Scattered Clouds
6:20 AM 73.4 °F 57.2 °F 57% 29.59 in 6.2 mi NE 12.7 mph - N/A   Scattered Clouds
6:50 AM 69.8 °F 59.0 °F 68% 29.53 in 6.2 mi ENE 15.0 mph - N/A   Scattered Clouds
7:20 AM 73.4 °F 50.0 °F 44% 29.47 in 6.2 mi East 23.0 mph - N/A   Scattered Clouds
7:50 AM 73.4 °F 50.0 °F 44% 29.50 in 6.2 mi NE 16.1 mph - N/A   Scattered Clouds
8:20 AM 71.6 °F 51.8 °F 50% 29.47 in 6.2 mi East 18.4 mph 29.9 mph N/A Rain Light Rain
8:50 AM 75.2 °F 50.0 °F 41% 29.44 in 6.2 mi East 24.2 mph 36.8 mph N/A   Scattered Clouds
9:20 AM 78.8 °F 50.0 °F 36% 29.47 in 6.2 mi East 6.9 mph - N/A   Scattered Clouds
11:20 AM 75.2 °F 59.0 °F 57% 29.53 in - SW 11.5 mph - N/A   Clear
11:50 AM 69.8 °F 60.8 °F 73% 29.53 in - NNW 18.4 mph - N/A   Clear
12:20 PM 69.8 °F 60.8 °F 73% 29.53 in - NW 8.1 mph - N/A   Clear
12:50 PM 68.0 °F 62.6 °F 83% 29.56 in 6.2 mi WNW 10.4 mph - N/A   Scattered Clouds
1:20 PM 68.0 °F 62.6 °F 83% 29.56 in 6.2 mi WNW 11.5 mph - N/A   Scattered Clouds
1:50 PM 68.0 °F 62.6 °F 83% 29.56 in 6.2 mi WNW 8.1 mph - N/A   Scattered Clouds
2:20 PM 69.8 °F 62.6 °F 78% 29.56 in 6.2 mi WNW 9.2 mph - N/A   Scattered Clouds
2:50 PM 68.0 °F 62.6 °F 83% 29.56 in 5.6 mi West 5.8 mph - N/A   Scattered Clouds
3:20 PM 68.0 °F 62.6 °F 83% 29.56 in 6.2 mi Variable 3.5 mph - N/A   Scattered Clouds
3:50 PM 69.8 °F 60.8 °F 73% 29.56 in 6.2 mi Variable 2.3 mph - N/A   Partly Cloudy
4:20 PM 69.8 °F 60.8 °F 73% 29.56 in - Variable 2.3 mph - N/A   Clear
4:50 PM 69.8 °F 60.8 °F 73% 29.56 in - Variable 3.5 mph - N/A   Clear
5:20 PM 69.8 °F 60.8 °F 73% 29.59 in - Variable 3.5 mph - N/A   Clear
5:50 PM 69.8 °F 60.8 °F 73% 29.59 in - Variable 3.5 mph - N/A   Clear
6:20 PM 69.8 °F 60.8 °F 73% 29.59 in - Variable 3.5 mph - N/A   Clear
6:50 PM 68.0 °F 60.8 °F 78% 29.59 in 6.2 mi Variable 3.5 mph - N/A   Partly Cloudy
7:20 PM 68.0 °F 60.8 °F 78% 29.59 in 6.2 mi West 6.9 mph - N/A   Mostly Cloudy
7:50 PM 68.0 °F 62.6 °F 83% 29.62 in 6.2 mi West 13.8 mph - N/A   Scattered Clouds
8:20 PM 66.2 °F 62.6 °F 88% 29.62 in 6.2 mi West 15.0 mph - N/A   Mostly Cloudy
8:50 PM 66.2 °F 60.8 °F 83% 29.62 in 6.2 mi WSW 5.8 mph - N/A   Mostly Cloudy
9:20 PM 66.2 °F 60.8 °F 83% 29.65 in 6.2 mi West 8.1 mph - N/A   Scattered Clouds
9:50 PM 66.2 °F 60.8 °F 83% 29.65 in 6.2 mi SSW 4.6 mph - N/A   Scattered Clouds
10:20 PM 66.2 °F 59.0 °F 78% 29.65 in 6.2 mi South 5.8 mph - N/A   Scattered Clouds
10:50 PM 66.2 °F 59.0 °F 78% 29.68 in 6.2 mi WSW 4.6 mph - N/A   Scattered Clouds
11:20 PM 66.2 °F 59.0 °F 78% 29.68 in 6.2 mi West 6.9 mph - N/A   Partly Cloudy
11:50 PM 68.0 °F 60.8 °F 78% 29.68 in 6.2 mi West 12.7 mph - N/A   Partly Cloudy